Other Public Products
Issued by NWS Grand Forks, ND

Home | Current Version | Previous Version | Text Only | Print | Product List | Glossary On
Versions: 1 2 3 4 5 6 7 8 9 10 11 12 13 14 15 16 17 18 19 20 21 22 23 24 25 26 27 28 29 30 31 32 33 34 35 36 37 38 39 40 41 42 43 44 45 46 47 48 49 50
000
FPUS83 KFGF 231631
OPUFGF
PRAIRIE TO PINES WEATHER ROUNDUP
NATIONAL WEATHER SERVICE EASTERN NORTH DAKOTA/GRAND FORKS ND
1100 AM CDT THU OCT 23 2014

 **SATELLITE DATA USED TO AUGMENT SKY COVER AT AUTOMATED STATIONS**
 *****  WEATHER ACROSS EASTERN NORTH DAKOTA  *****

CITY           SKY/WX    TMP DP  RH WIND       PRES   REMARKS
GRAND FORKS    SUNNY     57  43  59 SW7       29.86S
GRAND FORKS AF SUNNY     60  43  53 SW12      29.86S
GRAND CITY NWS   N/A     61 N/A N/A SW9         N/A
BUXTON           N/A     57  44  61 SW6         N/A
DEVILS LAKE    SUNNY     54  37  54 SW10      29.84F
FARGO          SUNNY     52  42  69 S10       29.92S
WAHPETON ARPT  SUNNY     52  41  66 S6        29.96S
$$

 *****  WEATHER ACROSS CENTRAL AND WESTERN NORTH DAKOTA  *****

CITY           SKY/WX    TMP DP  RH WIND       PRES   REMARKS
JAMESTOWN      SUNNY     56  40  55 SW8       29.90F
BISMARCK       SUNNY     53  35  50 SW6       29.91F
MINOT          SUNNY     54  34  46 SW13      29.83S
MINOT AFB      SUNNY     55  36  47 SW10      29.82F
GARRISON         N/A     51  39  63 SW7       29.86S
WILLISTON      MOSUNNY   46  32  58 S9        29.84F
DICKINSON      SUNNY     56  32  40 W8        29.88S
HETTINGER      SUNNY     54  30  40 SW3       29.94S
$$

 *****  OTHER OBSERVATIONS NORTHEAST NORTH DAKOTA  *****

CITY           SKY/WX    TMP DP  RH WIND       PRES   REMARKS
WALHALLA         N/A     57  41  54 W5        29.82S
LANGDON        FAIR      55  41  58 W17       29.83S
CAVALIER       FAIR      57  41  54 SW8       29.82S
GRAFTON        FAIR      55  45  67 SW10      29.84S
CANDO          FAIR      57  39  51 W8        29.85S
FORT TOTTEN      N/A     54  39  56 SW7       29.95S
ROLLA          FAIR      57  34  41 W16       29.83S
RUGBY          FAIR      55  39  54 SW9       29.85R
 ***** THE ABOVE OBSERVATIONS ARE NON NWS ARE NOT QUALITY
        CONTROLLED AND MAY MIS-REPORT RAIN FOR SNOW...
$$

 *****  OTHER OBSERVATIONS SOUTHEAST NORTH DAKOTA *****

CITY           SKY/WX    TMP DP  RH WIND       PRES   REMARKS
COOPERSTOWN    NOT AVBL
VALLEY CITY    FAIR      57  43  58 SW12      29.91S
OAKES            N/A     50  43  76 S7        29.95S
GWINNER        SUNNY     54  45  71 SW10      29.95F
SHEYENNE NWR     N/A     52  44  74 SW7       29.95
BUFFALO          N/A     56  41  57 SW8         N/A
WYNDMERE         N/A     54  46  76 SW10        N/A
 ***** THE ABOVE OBSERVATIONS ARE NON NWS ARE NOT QUALITY
       CONTROLLED AND MAY MIS-REPORT RAIN FOR SNOW...
$$

  *****  WEATHER ACROSS NORTHERN MINNESOTA  *****

CITY           SKY/WX    TMP DP  RH WIND       PRES   REMARKS
FLAG ISLAND    CLOUDY    50  46  87 SE9       29.81F
WARROAD        SUNNY     55  48  76 S9        29.84S
ROSEAU         MOSUNNY   54  46  76 SW14      29.85R
HALLOCK        SUNNY     54  45  71 SW8       29.83S
THF RVR FALLS  SUNNY     52  43  71 S8        29.89S
HALSTAD          N/A     55  41  60 S8          N/A
FOSSTON        SUNNY     54  46  76 S12       29.92S
BAUDETTE       SUNNY     56  46  69 S13       29.85F
WASKISH        SUNNY     59  48  67 CALM      29.88S
CROOKSTON      SUNNY     54  45  71 S8        29.89S
$$
  *****  WEATHER ACROSS CENTRAL AND WEST MINNESOTA  *****

CITY           SKY/WX    TMP DP  RH WIND       PRES   REMARKS
BEMIDJI        SUNNY     58  46  66 SW10      29.91S
PARK RAPIDS    MOSUNNY   52  48  86 S8        29.94S
WADENA         SUNNY     52  52 100 SW5       29.95F
DETROIT LAKES  SUNNY     54  45  71 S6        29.95S
MOORHEAD       SUNNY     54  46  76 S7        29.94R
FERGUS FALLS   SUNNY     55  43  62 SW5       29.97S
ELBOW LAKE     FAIR      54  46  73 SW5       29.97S
MORRIS MN      SUNNY     57  48  72 SW5       29.97S
STAPLES        PTSUNNY   50  48  93 CALM      29.97S
WHEATON        SUNNY     55  45  67 SW5       29.98S
$$
  *****  WEATHER ELSEWHERE ACROSS MINNESOTA  *****

CITY           SKY/WX    TMP DP  RH WIND       PRES   REMARKS
DULUTH         FOG       49  47  93 SW9       29.96S VSB 1/2
INTRNTL FALLS  CLOUDY    54  49  83 S6        29.88F
ELY            CLOUDY    48  46  93 SW7       29.95R
CLOQUET        CLOUDY    50  48  93 SW6       29.97S FOG
BRAINERD       CLOUDY    52  50  93 SW7       29.97S
HIBBING        CLOUDY    50  48  93 SW5       29.95S
ALEXANDRIA     SUNNY     53  47  79 SW8       29.98S
SAINT CLOUD    CLOUDY    52  50  93 SW8       30.00R FOG
MINNEAPOLIS    CLOUDY    57  52  83 SW8       30.01R
$$

  *****  WEATHER ACROSS SOUTH DAKOTA  *****

CITY           SKY/WX    TMP DP  RH WIND       PRES   REMARKS
SIOUX FALLS    MOSUNNY   58  50  75 CALM      30.04S
BROOKINGS      NOT AVBL
WATERTOWN      SUNNY     49  45  86 SE6       30.00F
HURON          SUNNY     51  44  77 SE5       30.00S
SISSETON         N/A     60  41  49 W12       29.96R
ABERDEEN       SUNNY     49  42  77 S9        29.98S
MITCHELL       SUNNY     53  47  79 S6        30.03S
PIERRE         SUNNY     50  38  63 S6        29.97S
MOBRIDGE       SUNNY     51  40  65 S8        29.93S
RAPID CITY     PTSUNNY   53  28  38 CALM      29.98F
$$

  *****  SOME WEATHER IN NEARBY STATES *****

CITY           SKY/WX    TMP DP  RH WIND       PRES   REMARKS
GLASGOW MT     PTSUNNY   47  36  65 SE7       29.79S
GREAT FALLS MT CLOUDY    55  36  48 S9        29.82S
CHEYENNE WY    CLOUDY    57  32  38 SW10      30.18R
SCOTTSBLUFF NE PTSUNNY   49  34  56 SE3       30.10F
OMAHA NE       PTSUNNY   61  56  83 W7        30.08R
DES MOINES IA  CLOUDY    59  56  89 SW8       30.05S
DAVENPORT IA   CLOUDY    54  41  61 S12       30.13S
CHICAGO IL     PTSUNNY   53  41  63 S10       30.20F
EAU CLAIRE WI  LGT RAIN  49  47  93 S7        30.03F
LA CROSSE WI   LGT RAIN  49  47  93 S8        30.06S FOG
$$

  *****  SOME NATIONAL WEATHER *****

CITY           SKY/WX    TMP DP  RH WIND       PRES   REMARKS
LA GUARDIA NY  LGT RAIN  52  47  83 N17G25    29.71S
RALEIGH NC     SUNNY     62  42  47 VRB3      30.02S
ATLANTA GA     MOSUNNY   59  42  53 SW7       30.13F
NEW ORLEANS LA MOSUNNY   70  52  52 NE10      30.12S
OKLAHOMA CITY  MOSUNNY   68  56  65 S14       30.13S
ALBUQUERQUE NM SUNNY     59  42  53 NW5       30.30S
SALT LAKE CITY PTSUNNY   56  31  38 SE5       30.14S
LOS ANGELES CA MOSUNNY   69  55  60 CALM      29.99R
BOISE ID       LGT RAIN  54  46  74 SE9       30.06R
SEATTLE WA     LGT RAIN  51  47  86 SE12      29.77R
$$

*** WEATHER ACROSS MANITOBA...SASKATCHEWAN AND ONTARIO ***
                ***ONTARIO***

CITY           SKY/WX    TMP DP  RH WIND       PRES   REMARKS
GERALDTON      CLOUDY    45  39  81 S9        30.01S
THUNDER BAY    CLOUDY    46  45  93 NE3       29.99S
SIOUX LOOKOUT  DRIZZLE   48  46  93 S8        29.88R
TORONTO        SUNNY     57  41  54 N15G22    30.14F
BIG TROUT LK   CLOUDY    50  41  71 S8        29.78S
PICKLE LAKE    LGT RAIN  45  41  87 S9        29.86R
DRYDEN         CLOUDY    52  48  87 S13G18    29.85S
KENORA         CLOUDY    50  46  87 S14       29.82S
$$
                *** MANITOBA***

CITY           SKY/WX    TMP DP  RH WIND       PRES   REMARKS
BRANDON        MOSUNNY   48  41  76 W12       29.79S
DAUPHIN        CLOUDY    54  46  76 W10       29.73S
ISLAND LAKE    CLOUDY    52  50  93 S8        29.67
PILOT MOUND      N/A     54  39  58 W6          N/A
THE PAS        DRIZZLE   45  45 100 N5        29.71S FOG
THOMPSON       LGT RAIN  37  36  93 NE9       29.74F
WINNIPEG       PTSUNNY   52  46  82 SW14      29.78
LYNN LAKE      FOG       36  36 100 E8        29.80R VSB 3/8
CHURCHILL      CLOUDY    36  36 100 E21       29.97R FOG
GILLAM         LGT RAIN  39  37  93 NE15G21   29.76
$$
                ***SASKATCHEWAN***

CITY           SKY/WX    TMP DP  RH WIND       PRES   REMARKS
ESTEVAN        PTSUNNY   48  37  66 SW12      29.79S
KINDERSLEY     PTSUNNY   48  37  66 S16       29.57F
LLOYDMINSTER   MOSUNNY   48  37  66 S14       29.47F
PRINCE ALBERT  CLOUDY    45  45 100 E10       29.67F FOG
REGINA         PTSUNNY   43  37  81 SE8       29.74S



USA.gov is the U.S. government's official web portal to all federal, state and local government web resources and services.